星链-5800 (STARLINK-5800 )

导读

STARLINK-5800是美国SpaceX星链项目的低轨互联网卫星,于2023年3月24日发射入轨。它运行在约550公里近地轨道,属于星链第二代组网卫星,配备激光星间链路与相控阵通信天线,工作于Ku、Ka频段,可提供低时延高速互联网接入,助力星链完成全球覆盖,服务偏远地区、移动场景等网络接入需求,是SpaceX构建大规模卫星互联网星座的重要组成单元。

基本信息
目录编号:
56041
目录名称:
STARLINK-5800
国际标识:
2023-042BH
轨道中心:
EARTH
卫星名称:
星链-5800
卫星全名:
星链-5800 (STARLINK-5800 )
卫星状态:
在轨 (已飞行1260 天)
发射日期:
2023-03-24 UTC
国别 :
美国 (US)
星等 :
--
轨道信息
数据来源 国际轨道数据 AOE轨道数据
星历时间 2026-09-04T00:03:40+0800
15小时前
查看轨道信息
2026-08-29T22:00:00+0800
5天前
查看轨道信息
半长轴 6861.251km 6861.129km
偏心率 0.0001448 0.0000582
轨道倾角 43.004° 43.003°
近地点辐角 252.196° 329.123°
升交点赤经 108.852° 137.578°
平近点角 107.873° 109.610°
近地点 482.12km 482.592km
远地点 484.108km 483.392km
周期 94.268分钟 94.266分钟
每日圈数 15.275585 15.275991
详细信息
固有亮度:
5
最大亮度:
2.5
卫星平台:
Starlink v1.5
覆盖范围:
全球
运营商:
太空探索技术公司
运营商所在国:
美国
制造商(研发单位):
太空探索技术公司
制造商所在国:
美国
使用方式:
暂无
卫星简介
星链(Starlink)计划是由太空探索技术公司(SpaceX)提出的一个巨型低轨卫星互联网星座项目,计划在2019年至2024年间在太空搭建由约1.2万颗卫星组成的“星链”网络,其中1584颗将部署在地球上空550千米处的近地轨道,并从2020年开始工作。该卫星仍在工作。
2D轨道图
3D轨道图
轨道高度分析图
轨道倾角分析图
轨道综合分析图
查看轨道综合分析图